Regional Weather Roundup
Issued by NWS

Home | Current Version | Previous Version | Text Only | Print | Product List | Glossary Off
Versions: 1 2 3 4 5 6 7 8 9 10 11 12 13 14 15 16 17 18 19 20 21 22 23 24 25 26 27 28 29 30 31 32 33 34 35 36 37 38 39 40 41 42 43 44 45 46 47 48 49 50

000
ASUS43 KDMX 292303
RWRIA

WEATHER ROUNDUP FOR IOWA
NATIONAL WEATHER SERVICE DES MOINES IA
600 PM CDT MON AUG 29 2016

NOTE: "FAIR" INDICATES FEW OR NO CLOUDS BELOW 12,000 FEET WITH NO
SIGNIFICANT WEATHER AND/OR OBSTRUCTIONS TO VISIBILITY.

* - THESE STATIONS ARE NOT NWS STATIONS...THUS NOT UNDER NWS
QUALITY CONTROL.  THEY ALSO DO NOT REPORT WEATHER SUCH
AS PRECIPITATION OR FOG.

IAZ001>003-012>014-020>022-031>034-043>046-300000-
   NORTHWEST IOWA

CITY           SKY/WX    TMP DP  RH WIND       PRES   REMARKS
CARROLL *      CLOUDY    77  70  78 E5        30.16R
CHEROKEE *     CLOUDY    82  73  72 CALM      30.14S HX  88
DENISON *      CLOUDY    81  72  74 E6        30.12S HX  84
LE MARS *      MOSUNNY   84  73  70 SE7       30.14S HX  91
ORANGE CITY *  PTSUNNY   82  73  74 S6        30.15F HX  88
SHELDON *      MOSUNNY   81  73  78 S3        30.14S HX  85
SIOUX CITY     MOSUNNY   83  71  67 E6        30.12F HX  87
SPENCER        MOSUNNY   82  70  66 S5        30.14F HX  86
STORM LAKE *   SUNNY     81  73  78 SE5       30.16S HX  85
$$

IAZ055>058-069>071-079>083-090>094-300000-
   SOUTHWEST IOWA

CITY           SKY/WX    TMP DP  RH WIND       PRES   REMARKS
ATLANTIC *     HVY RAIN  70  68  94 W12G18    30.17R
AUDUBON *      CLOUDY    73  66  78 SE8       30.19R
CLARINDA *       N/A     77  75  94 MISG      30.17R
COUNCIL BLFS * CLOUDY    73  68  83 E21G30    30.16R
CRESTON *      CLOUDY    79  72  78 E7        30.15F HX  82
HARLAN  *      CLOUDY    72  68  88 S13       30.20R
LAMONI         MOSUNNY   76  72  87 E3        30.13F
RED OAK *      PTSUNNY   77  70  78 N8        30.15R
SHENANDOAH *   MOSUNNY   75 -35   1 NE5       30.13R
$$

IAZ047>049-059>061-072>074-084-300000-
   CENTRAL IOWA

CITY           SKY/WX    TMP DP  RH WIND       PRES   REMARKS
AMES           TSTM      70  70 100 S9        30.18F VSB 3/4
ANKENY *         N/A    N/A N/A N/A MISG        N/A
BOONE *        CLOUDY    70  68  94 S9G16     30.17S
CHARITON *       N/A     77  72  83 MISG      30.14F
DES MOINES     PTSUNNY   79  74  84 NE7       30.15S HX  82
GRINNELL*      CLOUDY    79  73  80 E6        30.18R HX  82
KNOXVILLE *    CLOUDY    77  70  78 CALM      30.14S
MARSHALLTOWN   LGT RAIN  71  68  90 NE9       30.15F
NEWTON *       CLOUDY    77  73  88 CALM      30.17R
PERRY *        LGT RAIN  71  70  97 CALM      30.18R
$$

IAZ004>006-015-016-023>025-035-036-300000-
   NORTH CENTRAL IOWA

CITY           SKY/WX    TMP DP  RH WIND       PRES   REMARKS
ALGONA *       SUNNY     79  68  69 CALM      30.16F HX  81
ESTHERVILLE    CLOUDY    79  74  84 SE9       30.14F HX  82
FORT DODGE *   CLOUDY    81  72  74 E8        30.17R HX  84
MASON CITY     CLOUDY    76  68  76 SW6       30.18S
FOREST CITY *    N/A    N/A N/A N/A MISG        N/A
WEBSTER CITY * CLOUDY    77  72  83 SE8       30.16R
IOWA FALLS *     N/A     72  68  89 SE5       30.18R
$$

IAZ007>011-017>019-026>030-037>042-050>054-066-300000-
   NORTHEAST IOWA

CITY           SKY/WX    TMP DP  RH WIND       PRES   REMARKS
CEDAR RAPIDS   CLOUDY    78  71  79 SE10      30.16R HX  80
CHARLES CITY * CLOUDY    77  77 100 SE9G16    30.17F
CLINTON *      LGT RAIN  75  72  90 SE9       30.17F
DECORAH *      CLOUDY    77  75  94 CALM      30.17S
DUBUQUE        CLOUDY    79  73  82 CALM      30.19R HX  82
MONTICELLO *   PTSUNNY   79  73  83 E5        30.17S HX  82
OELWEIN *      CLOUDY    75  72  88 S7        30.16F
WATERLOO       LGT RAIN  71  67  87 S8        30.14F
$$

IAZ064-065-067-068-078-300000-
   EAST CENTRAL IOWA

CITY           SKY/WX    TMP DP  RH WIND       PRES   REMARKS
DAVENPORT      CLOUDY    74  66  76 E5        30.17F
IOWA CITY      CLOUDY    74  69  85 SE8       30.17F
MT. PLEASANT * RAIN      74  72  94 W7        30.16F
QUAD CITIES    PTSUNNY   81  72  74 NE6       30.16S HX  85
$$

IAZ062-063-075>077-085>089-095>099-300000-
   SOUTHEAST IOWA

CITY           SKY/WX    TMP DP  RH WIND       PRES   REMARKS
BURLINGTON     MOSUNNY   78  69  73 NE7       30.15S HX  80
FAIRFIELD *    CLOUDY    82  75  78 NE8       30.13F HX  89
FORT MADISON *   N/A     79  70  73 NE6       30.16S HX  81
KEOKUK *       SUNNY     88  72  58 E6        30.13S HX  94
OSKALOOSA *      N/A     80  75  84 NW3       30.15S HX  85
CENTERVILLE *  LGT RAIN  73  72  94 E7        30.15F
OTTUMWA        CLOUDY    81  75  82 N3        30.13F HX  87
WASHINGTON *   PTSUNNY   79  73  83 NE13      30.17R HX  82
$$

ABBREVIATIONS USED IN REMARKS
   TC - TEMPERATURES IN CELSIUS
  WCI - WIND CHILL INDEX
   HX - HEAT INDEX
  VSB - VISIBILITY
$$





USA.gov is the U.S. government's official web portal to all federal, state and local government web resources and services.